Regional Weather Roundup
Issued by NWS Wilmington, NC

Home | Current Version | Previous Version | Text Only | Print | Product List | Glossary On
Versions: 1 2 3 4 5 6 7 8 9 10 11 12 13 14 15 16 17 18 19 20 21 22 23 24 25 26 27 28 29 30 31 32 33 34 35 36 37 38 39 40 41 42 43 44 45 46 47 48 49 50
000
ASUS42 KILM 020913
RWRILM
RWRILM
REGIONAL HOURLY WEATHER ROUNDUP
NATIONAL WEATHER SERVICE WILMINGTON NC
500 AM EDT TUE JUN 02 2015

NOTE: "FAIR" INDICATES FEW OR NO CLOUDS BELOW 12,000 FEET WITH NO
SIGNIFICANT WEATHER AND/OR OBSTRUCTIONS TO VISIBILITY.

...............WFO WILMINGTON COUNTY WARNING AREA...............

......COASTAL NC AND SC COUNTIES......

CITY           SKY/WX    TMP DP  RH WIND       PRES   REMARKS
WILMINGTON     PTCLDY    71  69  93 CALM      30.01F
N MYRTLE BEACH CLEAR     73  69  87 W3        30.00F
MYRTLE BEACH   CLEAR     73  66  78 CALM      30.02F

......INLAND NC AND SC COUNTIES.......

CITY           SKY/WX    TMP DP  RH WIND       PRES   REMARKS
LUMBERTON      PTCLDY    68  66  93 CALM      29.99F
ELIZABETHTOWN  PTCLDY    71  70  96 CALM      30.00F
WHITEVILLE     PTCLDY    70  68  93 CALM      30.00S
FLORENCE       MOCLDY    70  68  93 CALM      30.00S
DARLINGTON     MOCLDY    70  64  83 S3        30.01F

....................REST OF NORTH CAROLINA......................

.........EASTERN NC.........

CITY           SKY/WX    TMP DP  RH WIND       PRES   REMARKS
CAPE HATTERAS  PTCLDY    73  68  84 W6        30.03F
JACKSONVILLE   CLOUDY    68  64  88 S3        30.02S
MOREHEAD CITY  CLEAR     75  70  84 S7        30.01F
KENANSVILLE    PTCLDY    66  65  96 CALM      30.02F
NEW BERN       MOCLDY    69  67  93 CALM      30.02F
ELIZABETH CITY CLEAR     72  69  90 S5        30.00F

.........CENTRAL NC.........

CITY           SKY/WX    TMP DP  RH WIND       PRES   REMARKS
RALEIGH DURHAM MOCLDY    69  66  90 S5        29.99F
ROCKY MOUNT    PTCLDY    69  68  96 SE5       30.00S
ROANOKE RAPIDS NOT AVBL
FAYETTEVILLE   CLEAR     68  66  93 CALM      29.99F
HOFFMAN        MOCLDY    67  66  97 S3        30.02F

.........WESTERN NC.........

CITY           SKY/WX    TMP DP  RH WIND       PRES   REMARKS
CHARLOTTE      CLOUDY    68  63  84 SW3       29.99F
GREENSBORO     CLOUDY    66  64  93 CALM      29.98F
HICKORY        NOT AVBL
BOONE          NOT AVBL
ASHEVILLE      NOT AVBL

.....................REST OF SOUTH CAROLINA.....................

.........EASTERN SC.........

CITY           SKY/WX    TMP DP  RH WIND       PRES   REMARKS
CHARLESTON     MOCLDY    73  69  87 CALM      30.00S
BEAUFORT MCAS  PTCLDY    71  69  93 CALM      30.00S
HILTON HEAD    PTCLDY    72  70  94 CALM      30.01S

.........CENTRAL SC.........

CITY           SKY/WX    TMP DP  RH WIND       PRES   REMARKS
COLUMBIA       CLOUDY    69  66  90 SE3       29.99F
ORANGEBURG     CLOUDY    69  66  90 CALM      30.00F
SUMTER SHAW    LGT RAIN  70  66  88 SE2       29.98F

.........WESTERN SC.........

CITY           SKY/WX    TMP DP  RH WIND       PRES   REMARKS
GREENVILLE     NOT AVBL
ROCK HILL      CLOUDY    67  65  93 SW5       30.00S
ANDERSON       MOCLDY    67  66  97 CALM      30.01S FOG
CLEMSON        NOT AVBL
GREENWOOD      CLOUDY    66  65  96 CALM      30.03R


...................COASTAL AND OFFSHORE REPORTS..................

................LOCAL PIERS AND NC RESERVE................


STATION/POSITION TIME  SKY/WX   TEMP    WIND        PRES    VSBY
                                AIR SEA DIR/SP/G
                 (UTC)          (F)     (DEG/KT/KT) (MB)    (MI)
JOHNY MRCER PIER 0800            76 79  210/  6/  7 1015.9F
NC RESRV MASNBRO NOT AVBL
OCEAN CREST PIER 0902            77 82  170/  9/ 11 1015.3F
SPRINGMAID  PIER 0800            74 80  230/  5/  6 1016.2F


................COASTAL AND OFFSHORE BUOYS................


STATION/POSITION TIME  SKY/WX   TEMP    WIND        PRES    VSBY
                                AIR SEA DIR/SP/G
                 (UTC)          (F)     (DEG/KT/KT) (MB)    (MI)
DIMNDSHOAL 41025 0850            77 81  250/ 10/ 14 1016.7F
WVE H/P(F/S)=  3/ 8 WND WVE H/P(F/S)=  2/ 3 SWL H/P/D(F/S/D)=  3/110/ 8

CAPE LOOKOUT     0900            75     190/  6/  7 1016.2F
ONSLOW BAY 41036 NOT AVBL
5 WRITEBCH 41038 0808            77 78  210/ 10/ 14 1016.4F
MASONBORO  41110 0819               79                N/A
WVE H/P(F/S)=  2/ 7 WND WVE H/P(F/S)=  2/ 7

WILM HARBR 41108 0811               78                N/A
WVE H/P(F/S)=  2/ 8 WND WVE H/P(F/S)=  2/ 8

27WRITEBCH 41037 0800               77  220/  6/  8   N/A
FRYING PAN 41013 0850            78 76  210/  6/  6 1017.0F
WVE H/P(F/S)=  3/ 8 WND WVE H/P(F/S)=  2/ 3 SWL H/P/D(F/S/D)=  3/100/ 8

SUNST NRSH 41024 0808            76     240/ 10/ 17 1016.0F
CAPRS NRSH 41029 0808            78     210/  6/  8 1015.9F
EDISTO     41004 0850            79 80  230/  6/  8 1015.7F
WVE H/P(F/S)=  3/ 9 WND WVE H/P(F/S)=  2/ 3 SWL H/P/D(F/S/D)=  3/ 9



..........OFFSHORE BUOYS BEYOND 100 NM OFFSHORE...........
.....IN A TRIANGLE---HAT TO BERMUDA TO BAHAMAS TO HAT.....


STATION/POSITION TIME  SKY/WX   TEMP    WIND        PRES    VSBY
                                AIR SEA DIR/SP/G
                 (UTC)          (F)     (DEG/KT/KT) (MB)    (MI)
150E HAT   41001 NOT AVBL
W BERMUDA  41048 0850            74 75  120/  4/  6 1018.6F
WVE H/P(F/S)=  4/ 8 SWL H/P/D(F/S/D)=  3/ 90/ 8

ATLANTIC S 41049 0850            77 78     CALM     1018.5R
WVE H/P(F/S)=  4/ 8

E BAHAMAS  41046 0850            80 82   90/  4/  6 1016.6F
WVE H/P(F/S)=  4/ 8 WND WVE H/P(F/S)=  2/ 4 SWL H/P/D(F/S/D)=  3/ 90/ 8

NE BAHAMAS 41047 0850            78 80  110/  2/  4 1016.6F
WVE H/P(F/S)=  3/ 8 SWL H/P/D(F/S/D)=  3/100/ 8

120E CANVRL41010 0820            78 80  160/  6/  8 1016.8S

END



USA.gov is the U.S. government's official web portal to all federal, state and local government web resources and services.